Mourad Haddad

Olheiro - CR Belouizdad
4 Abr 2027
Domingo
Processo

Personalidade

Adaptabilidade (15) Ambição (7) Controvérsia (18) Lealdade (7) Pressão (18) Profissionalismo (20) Espírito Esportivo (2) Temperamento (10)

Perfil

Estilo de Treinamento Democrático
Licença Nacional B
Determinação 8
Gestão de Pessoas 12
Motivação 8
Disciplina 10
Satisfação no Trabalho
100%
Fadiga
0%
Função Olheiro
Salário 67.1K p/s
Contrato 14.03.2029

Desempenho

Comportamento Bom
Eficácia do Treinamento
36%
Desenvolvimento do Jogador
40%
Prevenção de Lesões
25%
Implementação Tática
20%

Eventos Recentes

Participou de uma reunião de recrutamento agora
Recomendou um alvo de transferência agora
Avaliou um jogador agora
Avaliou um jogador 7d atrás
Participou de uma reunião de recrutamento 7d atrás
Recomendou um alvo de transferência 7d atrás
Recomendou um alvo de transferência 14d atrás
Avaliou um jogador 14d atrás

Monitorando agora

51
Jogador Clube Status Habilidade Confiança Observado Última observação Último voto
Fábio Tavares Newport County Ativo 102 / 102 40% 2 03.04.2027 -
Calum Kavanagh Oldham Athletic Ativo 98 / 105 40% 1 03.04.2027 -
Miguel Falé Pacos de Ferreira Ativo 101 / 115 40% 1 03.04.2027 -
Alessio Nepi Perugia Ativo 105 / 114 40% 1 02.04.2027 -
Kenneth Ikugar MB Rouissat Ativo 96 / 82 40% 1 02.04.2027 -
Jacopo Desogus AlbinoLeffe Ativo 107 / 112 40% 1 01.04.2027 -
Ben Ahmed Kohili Paradou Ativo 101 / 115 40% 1 01.04.2027 -
Naoufal Bannis Vitesse Ativo 105 / 113 40% 1 01.04.2027 -
Carlos Paraco Metalist Ativo 107 / 111 40% 1 22.03.2027 -
Kane Drummond Oldham Athletic Ativo 92 / 104 40% 1 22.03.2027 -
Isaac Tshibangu Emirates Club Ativo 112 / 122 40% 1 22.03.2027 -
Vladislav Yakovlev Volga Ativo 87 / 109 40% 1 20.03.2027 -
Freddie Draper Lincoln City Ativo 105 / 128 40% 1 20.03.2027 -
Itumeleng Tau Ajax Cape Town Ativo 121 / 109 40% 1 20.03.2027 -
Faik Amrane USM Khenchela Ativo 96 / 96 30% 1 / 1m 30.12.2026 -
Agustín Ramírez Inter Ativo 108 / 98 40% 1 29.12.2026 -
Teboho Tau Ajax Cape Town Ativo 117 / 116 40% 1 29.12.2026 -
Rok Stojanovic NK Domzale Ativo 112 / 121 40% 1 29.12.2026 -
Vyacheslav Grulev Nizhniy Novgorod Rejeitado 111 / 117 40% 1 24.12.2026 Mais informações
Ibrahim Cissoko Zwolle Ativo 128 / 105 40% 1 24.12.2026 -
Josip Mitrović Slaven Belupo Ativo 110 / 121 40% 2 16.12.2026 -
Aiman Yahya Al-Nassr Ativo 121 / 134 40% 1 16.12.2026 -
Ali Saleh Al Wasl Ativo 127 / 115 40% 1 16.12.2026 -
Istvan Gazdag Haladas Ativo 107 / 120 40% 1 14.12.2026 -
Uerdi Mara Qarabag Ativo 110 / 123 40% 1 14.12.2026 -
Moteb Al-Harbi Al-Hilal Ativo 114 / 114 40% 1 14.12.2026 -
Mohammed Rabii Al Jazira Ativo 114 / 114 40% 1 12.12.2026 -
Adam Gnezda Čerin Al Wahda Ativo 121 / 106 40% 1 12.12.2026 -
Aljoša Matko Ujpest Ativo 115 / 101 40% 1 12.12.2026 -
Saeed Al Naqbi Al Ahli Ativo 130 / 114 40% 2 30.11.2026 -
Moussa N'Diaye Al Nasr Ativo 122 / 128 40% 1 30.11.2026 -
Bernardo Folha Al Wahda Ativo 106 / 122 40% 1 30.11.2026 -
Mohammad Javad Hosseinnejad Dinamo Makhachkala Ativo 121 / 114 40% 2 27.11.2026 -
Brian Figueroa Morelia Ativo 115 / 98 40% 1 27.11.2026 -
Bruno Al Jazira Ativo 123 / 105 40% 1 27.11.2026 -
Merwane Khelif MC Alger Ativo 116 / 112 40% 2 25.11.2026 -
Mohau Nkota Al-Ettifaq Ativo 109 / 113 40% 1 25.11.2026 -
Ruslan Bezrukov Rubin Ativo 118 / 102 40% 1 19.11.2026 -
Richard Akonnor Al Jazira Ativo 114 / 111 40% 1 19.11.2026 -
Leandrinho Sharjah Ativo 114 / 126 40% 2 16.11.2026 -
Erik Al Ahli Ativo 117 / 120 40% 1 15.11.2026 -
Matías Pellegrini Vélez Ativo 117 / 128 40% 1 15.11.2026 -
Damián Puebla Orenburg Ativo 130 / 119 40% 1 13.11.2026 -
Yanis Hamache MC Oran Ativo 117 / 111 40% 1 12.11.2026 -
Nasser Al Shamsi Al Shabab Ativo 126 / 137 40% 1 12.11.2026 -
Rúben Canedo Al Wahda Ativo 117 / 123 40% 1 12.11.2026 -
Brahima Diarra Al Wahda Ativo 113 / 119 40% 1 05.11.2026 -
Juan Pablo Barinaga Patronato Ativo 122 / 114 40% 1 05.11.2026 -
Youssef Hassan Al Shabab Ativo 107 / 129 40% 1 05.11.2026 -
Ammar Oukil USM Khenchela Ativo 103 / 103 52% 1 / 1m 07.10.2026 -
Djamel Benlamri ES Mostaganem Ativo 93 / 95 72% 1 24.08.2026 Aprovar